Home   Weather   Tromsø   Past weeks
Flag for Norway

Past Weather in Tromsø, Norway — Yesterday and Last 2 Weeks

Now
39 °F

Overcast.


Feels Like: 35 °F
Forecast: 47 / 36 °F
Wind: 6 mph from Northeast

Location: Tromso / Langnes

Current Time: May 23, 2019 at 1:49:53 am

Latest Report: May 23, 2019 at 12:00 am


Visibility: 31 mi

Pressure: 30.17 "Hg

Humidity: 68%

Dew Point: 29 °F

Location of TromsøLocation

Past Weather in Tromsø — Graph

°F

Tromsø Temperature Yesterday

Maximum temperature yesterday: 44 °F (at 2:00 pm)
Minimum temperature yesterday: 39 °F (at 11:00 pm)
Average temperature yesterday: 41 °F

High & Low Weather Summary for the Past Weeks

 TemperatureHumidityPressure
High57 °F (May 20, 2:00 pm)94% (May 18, 4:00 am)30.43 "Hg (May 18, 4:00 am)
Low34 °F (May 9, 3:00 am)36% (May 10, 4:00 pm)29.50 "Hg (May 8, 2:00 pm)
Average43 °F73%30.10 "Hg
* Reported May 8 12:00 am — May 23 12:00 am, Tromsø. Weather by CustomWeather, © 2019

Note: Actual official high and low records may vary slightly from our data, if they occured in-between our weather recording intervals... More about our weather records

Advertising

Tromsø Weather History for the Previous 24 Hours

Scroll right to see more
 ConditionsComfort  
Time TempWeatherWind HumidityBarometerVisibility
12:00 am
Thu, May 23
39 °FOvercast.6 mph68%30.17 "Hg31 mi
11:00 pm
Wed, May 22
39 °FSunny.8 mph69%30.17 "Hg31 mi
10:00 pm40 °FSunny.8 mph65%30.18 "Hg31 mi
9:00 pm41 °FSunny.8 mph63%30.18 "Hg28 mi
8:00 pm42 °FSunny.9 mph61%30.18 "Hg22 mi
7:00 pm43 °FSunny.8 mph58%30.18 "Hg22 mi
6:00 pm44 °FSunny.9 mph59%30.19 "Hg22 mi
5:00 pm43 °FSunny.12 mph59%30.19 "Hg25 mi
4:00 pm43 °FSunny.10 mph59%30.20 "Hg17 mi
3:00 pm43 °FSunny.12 mph59%30.20 "Hg16 mi
2:00 pm44 °FSunny.12 mph59%30.20 "Hg18 mi
1:00 pm43 °FSunny.12 mph59%30.19 "Hg19 mi
12:00 pm43 °FSunny.9 mph59%30.20 "Hg17 mi
11:00 am42 °FSunny.10 mph58%30.19 "Hg19 mi
10:00 am42 °FSunny.10 mph61%30.19 "Hg19 mi
9:00 am42 °FSunny.9 mph66%30.18 "Hg25 mi
8:00 am41 °FOvercast.9 mph67%30.17 "Hg22 mi
7:00 am41 °FOvercast.8 mph72%30.17 "Hg22 mi
6:00 am41 °FOvercast.7 mph75%30.16 "Hg22 mi
5:00 am41 °FOvercast.6 mph76%30.15 "Hg25 mi
4:00 am41 °FOvercast.8 mph80%30.15 "Hg22 mi
3:00 am40 °FScattered clouds.7 mph80%30.15 "Hg22 mi
2:00 am40 °FScattered clouds.7 mph78%30.14 "Hg22 mi
1:00 am40 °FPartly sunny.9 mph82%30.14 "Hg22 mi
Weather by CustomWeather, © 2019

See weather overview